[[{"header":{"parameterUnit":"m.s-1","parameterCategory":1,"la1":30.2991,"la2":30.254,"lo1":-89.0895,"lo2":-89.0444,"dy":0.0017,"dx":0.0017,"nx":28,"ny":28,"refTime":"2023-07-29T09:00:00:Z","depth":0,"parameterNumber":2,"parameterNumberName":"U-component_of_WINDS"},"data":[0,0,0,0,0,0,0,0,0,0,0,0,0,0,0,0,0,0,0,0,0,0,0,0,0,0,0,0,0,0,0,0,0,0,0,0,0,0,0,0,0,0,0,0,0,0,0,0,0,0,0,0,0,0,0,0,0,0,3.9097,3.9098,0,3.9194,3.9195,3.9196,3.9095,3.9091,3.9087,3.9083,3.9187,3.9193,3.92,0,0,0,0,0,0,0,0,0,0,0,0,0,3.8827,3.8833,3.9097,3.9098,3.9099,3.9194,3.9195,3.9197,3.9095,3.909,3.9086,3.9081,3.9185,3.9193,3.92,0,0,0,0,0,0,0,0,0,0,0,0,0,3.8937,3.8834,3.9097,3.906,3.9058,3.9194,3.9195,3.9197,3.9096,3.909,3.9084,3.9079,3.9183,3.9192,3.9201,3.938,0,0,3.9231,3.9235,0,0,0,0,0,0,0,0,3.893,3.8947,3.9064,3.9063,3.906,3.9126,3.9138,3.9259,3.9098,3.9082,3.9083,3.9076,3.9172,3.9182,3.9214,3.9385,3.9389,3.9232,3.9238,3.9242,3.9245,0,0,0,0,0,0,0,3.8923,3.8942,3.9135,3.9066,3.9064,3.904,3.9049,3.9161,3.9159,3.9083,3.9076,3.9088,3.917,3.9204,3.9215,3.9391,3.9232,3.924,3.9246,3.925,3.9713,3.9719,0,0,0,0,0,0,3.8919,3.8936,3.9132,3.9138,3.8979,3.905,3.906,3.9111,3.9158,3.9159,3.9093,3.9083,3.9191,3.9204,3.9219,3.943,3.9242,3.9251,3.9257,3.9707,3.9714,3.9721,0,0,0,0,0,0,3.8914,3.8937,3.9128,3.9035,3.9058,3.9061,3.9119,3.9116,3.915,3.9165,3.9165,3.9129,3.9187,3.9205,3.934,3.9432,3.9255,3.9264,3.9699,3.9709,3.9718,3.9855,0,0,0,0,0,0,3.8906,3.8936,3.9003,3.9038,3.9063,3.9248,3.9125,3.9122,3.9167,3.9155,3.9198,3.92,3.9183,3.9326,3.935,3.9442,3.9272,3.9691,3.9703,3.9715,3.9842,3.9868,3.989,0,0,0,0,0,3.8897,3.9039,3.9007,3.9031,3.9147,3.9253,3.9268,3.9244,3.9175,3.9243,3.9252,3.9199,3.9418,3.9341,3.9367,3.9463,3.9685,3.97,3.9714,3.9831,3.9863,3.989,0,0,0,0,0,0,3.9016,3.9043,3.9008,3.9164,3.9207,3.9236,3.932,3.9279,3.9343,3.9329,3.9299,3.931,3.9453,3.9472,3.9385,3.9638,3.954,3.9561,3.9621,3.9651,3.9675,3.9667,3.928,0,0,0,0,0,3.9061,3.9144,3.9163,3.9299,3.9322,3.9318,3.9364,3.9342,3.9385,3.9403,3.9423,3.9468,3.9547,3.96,3.9674,3.9844,3.9853,3.9924,3.9948,3.9967,3.9985,4.0077,4.0109,3.9769,3.9769,3.9769,0,0,3.9154,3.9178,3.9233,3.9324,3.9354,3.9442,3.9334,3.9431,3.9496,3.9419,3.9547,3.9563,3.9612,3.9765,3.9834,3.9785,4.0081,3.9986,4.0002,4.0009,4.0095,4.0127,4.0156,3.9779,3.9778,3.9776,0,0,3.9368,3.9395,3.9511,3.9543,3.959,3.9586,3.9615,3.965,3.9657,3.9785,3.9728,3.9806,3.9943,3.998,4.0017,4.0245,4.0198,4.027,4.0395,4.0485,4.0512,4.0535,4.0616,4.0646,4.0288,4.0288,4.0288,0,3.9477,3.9606,3.9577,3.9678,3.972,3.9652,3.977,3.9803,3.9873,3.9904,3.9848,4.0018,4.0047,4.0208,4.0263,4.0296,4.0327,4.0264,4.051,4.0533,4.0555,4.0632,4.0663,4.0296,4.0295,4.0295,4.0294,0,3.9739,3.9829,3.9917,3.9984,4.0036,4.0146,4.0134,4.0191,4.0165,4.0167,4.0299,4.033,4.0409,4.0445,4.0422,4.0604,4.0572,4.0514,4.0415,4.0596,4.0668,4.0697,4.0308,4.0305,4.0303,4.0301,0,0,4.003,4.0079,4.0112,4.0141,4.0188,4.0258,4.0365,4.044,4.0489,4.054,4.0629,4.0747,4.0693,4.0735,4.0714,4.0793,4.0972,4.0725,4.0726,4.077,4.1174,4.1217,4.1252,4.0941,4.0947,4.0951,4.117,0,4.0245,4.0428,4.0405,4.0581,4.0664,4.0601,4.0694,4.0734,4.0739,4.0811,4.0817,4.0901,4.0824,4.0849,4.0924,4.0934,4.1052,4.0918,4.1025,4.1029,4.1014,4.129,4.1336,4.1541,4.1198,4.1203,4.1206,0,4.0519,4.0578,4.0762,4.0795,4.083,4.0913,4.098,4.105,4.1094,4.1093,4.114,4.1105,4.1214,4.1113,4.1262,4.1171,4.1213,4.1225,4.1232,4.1241,4.1128,4.1306,4.1605,4.1636,4.125,4.1247,4.1244,0,4.0713,4.0838,4.0964,4.0992,4.1034,4.1095,4.1116,4.1153,4.12,4.126,4.129,4.1362,4.1401,4.1458,4.1445,4.1373,4.1598,4.1496,4.16,4.1601,4.165,4.1647,4.1961,4.1679,4.1678,4.1678,4.1677,0,4.0955,4.107,4.1052,4.1129,4.1257,4.123,4.1357,4.137,4.1404,4.1484,4.1435,4.1511,4.1489,4.1565,4.1556,4.1681,4.1699,4.1702,4.1698,4.1706,4.1706,4.1733,4.1718,4.1686,4.1684,4.1682,4.1681,0,4.1192,4.1185,4.1318,4.1347,4.1357,4.145,4.1475,4.1549,4.155,4.1652,4.1674,4.1677,4.1764,4.1756,4.1854,4.1848,4.2003,4.1982,4.1987,4.1983,4.2087,4.2078,4.2429,4.2474,4.2163,4.2166,4.2169,0,4.1347,4.1433,4.1472,4.1521,4.1545,4.1626,4.1672,4.165,4.1701,4.1758,4.1825,4.1907,4.1971,4.2113,4.2124,4.2199,4.218,4.2298,4.2191,4.2196,4.2181,4.2176,4.2185,4.2319,4.2323,4.2325,4.2328,0,4.1622,4.1613,4.1682,4.175,4.1808,4.1861,4.1908,4.1952,4.1934,4.1995,4.2082,4.2131,4.2231,4.2313,4.2384,4.2407,4.2365,4.2361,4.2389,4.2398,4.2398,4.2399,4.2044,4.2353,4.2351,4.2349,4.2347,4.2346,4.1822,4.1896,4.1934,4.2013,4.2046,4.2092,4.2162,4.2172,4.2244,4.2321,4.2304,4.2403,4.2445,4.2535,4.2565,4.2643,4.26,4.2641,4.2652,4.2662,4.2674,4.2386,4.2656,4.2655,4.2655,4.2654,4.2653,0,4.2093,4.2115,4.2187,4.2255,4.2317,4.2271,4.2322,4.2377,4.2464,4.2506,4.257,4.267,4.275,4.2768,4.2844,4.2903,4.2886,4.2924,4.2919,4.2925,4.2708,4.2675,4.2936,4.2936,4.2936,4.2936,4.2936,4.2936,4.2242,4.2365,4.2361,4.25,4.2521,4.2616,4.2649,4.2691,4.2725,4.2838,4.2904,4.2914,4.2947,4.3025,4.3097,4.31,4.313,4.3176,4.3172,4.2969,4.294,4.2913,4.2883,4.3183,4.3183,4.3383,4.3384,4.3386]},{"header":{"parameterUnit":"m.s-1","parameterCategory":1,"la1":30.2991,"la2":30.254,"lo1":-89.0895,"lo2":-89.0444,"dy":0.0017,"dx":0.0017,"nx":28,"ny":28,"refTime":"2023-07-29T09:00:00:Z","depth":0,"parameterNumber":3,"parameterNumberName":"V-component_of_WINDS"},"data":[0,0,0,0,0,0,0,0,0,0,0,0,0,0,0,0,0,0,0,0,0,0,0,0,0,0,0,0,0,0,0,0,0,0,0,0,0,0,0,0,0,0,0,0,0,0,0,0,0,0,0,0,0,0,0,0,0,0,2.053,2.0531,0,2.0584,2.0585,2.0586,2.0554,2.0553,2.0551,2.055,2.0606,2.0609,2.0612,0,0,0,0,0,0,0,0,0,0,0,0,0,2.0401,2.0403,2.053,2.0531,2.0532,2.0584,2.0585,2.0586,2.0554,2.0553,2.0551,2.0549,2.0605,2.0609,2.0612,0,0,0,0,0,0,0,0,0,0,0,0,0,2.0456,2.0404,2.053,2.0522,2.0522,2.0584,2.0585,2.0586,2.0555,2.0553,2.055,2.0548,2.0604,2.0608,2.0613,2.0685,0,0,2.0626,2.0628,0,0,0,0,0,0,0,0,2.0453,2.0461,2.0523,2.0523,2.0523,2.056,2.056,2.0619,2.0555,2.0543,2.055,2.0547,2.0593,2.0598,2.0613,2.0688,2.069,2.0626,2.0629,2.0631,2.0632,0,0,0,0,0,0,0,2.0449,2.0458,2.0552,2.0524,2.0524,2.0516,2.0522,2.0571,2.058,2.0544,2.0541,2.0548,2.0592,2.0609,2.0614,2.0691,2.0626,2.063,2.0633,2.0635,2.0828,2.083,0,0,0,0,0,0,2.0446,2.0455,2.055,2.0553,2.0482,2.0521,2.0526,2.0551,2.0579,2.0581,2.055,2.0546,2.0603,2.0609,2.0616,2.0703,2.0631,2.0635,2.0637,2.0825,2.0828,2.0831,0,0,0,0,0,0,2.0443,2.0455,2.0548,2.0504,2.0515,2.0525,2.0553,2.0553,2.0569,2.0584,2.0586,2.0565,2.0601,2.061,2.0668,2.0704,2.0637,2.0641,2.0822,2.0826,2.083,2.0877,0,0,0,0,0,0,2.044,2.0454,2.0482,2.0505,2.0518,2.0599,2.0555,2.0556,2.0577,2.0573,2.0599,2.0601,2.06,2.0662,2.0672,2.0709,2.0644,2.0819,2.0824,2.0828,2.0872,2.0882,2.089,0,0,0,0,0,2.0435,2.0493,2.0483,2.0495,2.0553,2.0601,2.0609,2.0606,2.058,2.0608,2.0617,2.06,2.0698,2.0668,2.068,2.0718,2.0817,2.0823,2.0828,2.0868,2.088,2.089,0,0,0,0,0,0,2.0475,2.0496,2.0485,2.0553,2.0575,2.0596,2.0631,2.0619,2.0649,2.0644,2.064,2.0646,2.0706,2.0718,2.0684,2.079,2.0754,2.0762,2.078,2.0791,2.08,2.0796,2.0648,0,0,0,0,0,2.0492,2.0529,2.0546,2.0604,2.0615,2.0621,2.0643,2.0638,2.0662,2.0671,2.0685,2.0709,2.0744,2.0768,2.0803,2.0873,2.0879,2.0906,2.0915,2.0922,2.0929,2.0967,2.0979,2.0849,2.0849,2.0849,0,0,2.0527,2.0543,2.0567,2.0612,2.0629,2.0668,2.063,2.0673,2.0702,2.0678,2.0734,2.0744,2.077,2.0835,2.0864,2.0847,2.0966,2.0929,2.0935,2.0938,2.0974,2.0986,2.0997,2.0853,2.0853,2.0852,0,0,2.061,2.0626,2.0676,2.0693,2.0719,2.0722,2.0734,2.0757,2.0763,2.0818,2.0801,2.0835,2.0898,2.0916,2.0934,2.1024,2.1009,2.1035,2.1082,2.1119,2.1129,2.1138,2.117,2.1181,2.1042,2.1042,2.1042,0,2.065,2.0708,2.0703,2.0747,2.0767,2.0746,2.0797,2.0814,2.085,2.0864,2.0844,2.0921,2.0937,2.1006,2.1027,2.1043,2.1056,2.1032,2.1128,2.1137,2.1145,2.1175,2.1187,2.1045,2.1045,2.1044,2.1044,0,2.0756,2.0796,2.0833,2.0868,2.0892,2.0939,2.0941,2.0966,2.0959,2.0965,2.1021,2.104,2.1077,2.1093,2.1087,2.116,2.1148,2.1128,2.1092,2.116,2.1189,2.12,2.1049,2.1048,2.1047,2.1047,0,0,2.0867,2.0897,2.0911,2.0926,2.0952,2.0984,2.1029,2.1065,2.1086,2.1112,2.115,2.1202,2.1183,2.1203,2.1199,2.1232,2.1301,2.1207,2.1208,2.1224,2.1382,2.1398,2.1411,2.1291,2.1293,2.1295,2.138,0,2.0952,2.1032,2.1028,2.1102,2.1139,2.112,2.1159,2.118,2.1186,2.1218,2.1225,2.1262,2.1234,2.1246,2.1277,2.1286,2.1333,2.128,2.1327,2.1328,2.1321,2.1426,2.1443,2.1523,2.1391,2.1393,2.1395,0,2.1062,2.109,2.1168,2.1188,2.1204,2.124,2.1271,2.1302,2.1325,2.1327,2.1349,2.134,2.1386,2.1348,2.1411,2.1375,2.1394,2.1401,2.1404,2.1408,2.1366,2.1434,2.1548,2.156,2.1412,2.141,2.1409,0,2.1135,2.1193,2.1247,2.126,2.1285,2.131,2.1322,2.1342,2.1364,2.1391,2.1405,2.1438,2.1456,2.1482,2.1482,2.1454,2.1546,2.1508,2.1549,2.1549,2.157,2.1568,2.1689,2.1581,2.1581,2.1581,2.1581,0,2.1231,2.1279,2.128,2.1313,2.1366,2.1361,2.1414,2.1423,2.1441,2.1476,2.1461,2.1493,2.1491,2.1524,2.1524,2.1576,2.1584,2.1587,2.1587,2.1589,2.1589,2.1601,2.1596,2.1584,2.1583,2.1583,2.1582,0,2.1322,2.1324,2.1381,2.14,2.1405,2.1444,2.146,2.1491,2.1495,2.1539,2.1549,2.1556,2.1594,2.1596,2.164,2.164,2.1703,2.1697,2.1696,2.1694,2.1735,2.1732,2.1869,2.1886,2.1767,2.1768,2.1769,0,2.1383,2.142,2.1441,2.1463,2.1476,2.1511,2.1533,2.1529,2.1552,2.1579,2.1608,2.1644,2.1673,2.1735,2.1744,2.1777,2.1771,2.1817,2.1776,2.1777,2.1772,2.177,2.1773,2.1825,2.1826,2.1827,2.1828,0,2.1491,2.149,2.1521,2.1552,2.1578,2.1603,2.1626,2.1644,2.1643,2.1669,2.1708,2.173,2.1774,2.1811,2.1843,2.1855,2.1842,2.1841,2.1852,2.1855,2.1853,2.1854,2.1717,2.1838,2.1837,2.1836,2.1835,2.1835,2.1569,2.16,2.162,2.1655,2.1671,2.1693,2.1723,2.1731,2.1762,2.1798,2.1793,2.1836,2.1857,2.1899,2.1913,2.1946,2.1931,2.1947,2.1951,2.1956,2.196,2.1847,2.1952,2.1952,2.1952,2.1952,2.1951,0,2.1675,2.1687,2.1719,2.1751,2.1779,2.1763,2.1787,2.1811,2.1849,2.1869,2.1897,2.1941,2.1976,2.1987,2.2021,2.2046,2.204,2.2055,2.2053,2.2056,2.1972,2.1959,2.2058,2.2058,2.2058,2.2058,2.2058,2.2058,2.1734,2.1786,2.1788,2.1848,2.1859,2.19,2.1915,2.1935,2.1951,2.2,2.2029,2.2036,2.2052,2.2087,2.2118,2.2121,2.2134,2.2151,2.2151,2.2072,2.2062,2.2052,2.2039,2.2154,2.2154,2.2232,2.2232,2.2233]}]]